Flag for Falkland Islands Weather past 2 weeks in Stanley, Falkland Islands

Now
34 °F

Partly cloudy.


Feels Like: 26 °F
Forecast: N/A
Wind: 10 mph from South

Location: Mount Pleasant Airport

Current Time: May 30, 2015 at 8:28:41 PM

Latest Report: May 30, 2015 at 7:50 PM


Visibility: N/A

Pressure: 29.68 "Hg

Humidity: 75%

Dew point: 27 °F

Location of StanleyLocation

Historic Weather in Stanley — Graph

°F

Stanley temperature yesterday

Maximum temperature yesterday: 50 °F (at 12:50 PM)
Minimum temperature yesterday: 41 °F (at 10:50 PM)
Average temperature yesterday: 46 °F

Past Weeks' High & Low Weather Summary

 TemperatureHumidityPressure
High52 °F (May 16, 6:50 PM)100% (May 15, 8:50 PM)29.98 "Hg (May 15, 8:50 PM)
Low28 °F (May 25, 5:50 AM)47% (May 18, 12:50 PM)28.74 "Hg (May 16, 7:50 PM)
Average41 °F84%29.37 "Hg
* Reported May 15 6:50 PM — May 30 6:50 PM, Stanley, Weather by CustomWeather, © 2015

Note: Actual official high and low records may vary slightly from our data, if they occured in-between our weather recording intervals... More about our weather records

Advertising

Stanley weather history for previous 24 hours

 ConditionsComfort  
Time TempWeatherWind HumidityBarometerVisibility
6:50 PM
Sat, May 30
34 °FPassing clouds.10 mph81%29.65 "HgN/A
5:50 PM36 °FOvercast.14 mph81%29.62 "HgN/A
4:50 PM36 °FMore clouds than sun.14 mph81%29.59 "HgN/A
3:50 PM36 °FMostly cloudy.20 mph87%29.53 "HgN/A
2:50 PM36 °FMore clouds than sun.21 mph93%29.50 "HgN/A
1:50 PM37 °FLight rain. Mostly cloudy.20 mph93%29.47 "HgN/A
12:50 PM39 °FLight rain. Mostly cloudy.9 mph93%29.45 "Hg4 mi
11:50 AM39 °FLow clouds.14 mph93%29.45 "HgN/A
10:50 AM39 °FLow clouds.10 mph100%29.42 "HgN/A
9:50 AM39 °FDrizzle. Broken clouds.13 mph100%29.39 "Hg1 mi
8:50 AM41 °FLow clouds.7 mph93%29.36 "HgN/A
7:50 AM41 °FLight rain. Overcast.7 mph93%29.33 "HgN/A
6:50 AM41 °FOvercast.10 mph87%29.30 "HgN/A
5:50 AM41 °FOvercast.10 mph87%29.27 "HgN/A
4:50 AM39 °FPassing clouds.10 mph93%29.27 "HgN/A
3:50 AM37 °FPassing clouds.10 mph93%29.24 "HgN/A
2:50 AM37 °FPassing clouds.10 mph93%29.24 "HgN/A
1:50 AM39 °FPassing clouds.12 mph87%29.21 "HgN/A
12:50 AM39 °FClear.14 mph87%29.21 "Hg10 mi
11:50 PM
Fri, May 29
41 °FClear.14 mph81%29.18 "Hg10 mi
10:50 PM41 °FClear.10 mph87%29.18 "Hg10 mi
9:50 PM43 °FClear.15 mph87%29.18 "Hg10 mi
8:50 PM43 °FPassing clouds.21 mph87%29.18 "HgN/A
Weather by CustomWeather, © 2015

See weather overviewHow to use our weather pages